Hourly Data Report for September 14, 2017

All times are specified in Local Standard Time (LST). Add 1 hour to adjust for Daylight Saving Time where and when it is observed.

PORT ALBERNI (AUT)
BRITISH COLUMBIA

49°18'59.700" N
124°55'36.600" W
76.20 m
1036B06
71475
WQC

Download Data

Hourly Data (September 2017)
Hourly Data Report for September 14, 2017
Temp Definition
°C
Dew Point Temp Definition
°C
Rel Hum Definition
%
Wind Dir Definition
10's deg

Wind Spd Definition
km/h
Visibility Definition
km
Stn Press Definition
kPa
Hmdx Definition


Wind Chill Definition


Weather Definition


TIME
00:00 6.3 4.6 89 33 6   100.64     LegendNANA
01:00 5.4 4.1 92 35 4   100.66     LegendNANA
02:00 5.4 4.5 94 33 5   100.64     LegendNANA
03:00 4.5 3.8 95 34 3   100.66     LegendNANA
04:00 3.4 2.7 95 31 6   100.72     LegendNANA
05:00 3.0 2.3 95 30 3   100.76     LegendNANA
06:00 2.9 2.4 97 32 3   100.80     LegendNANA
07:00 5.3 4.7 95 33 3   100.85     LegendNANA
08:00 9.9 6.1 77 34 2   100.85     LegendNANA
09:00 14.4 6.6 60 10 2   100.82     LegendNANA
10:00 17.3 3.6 40 3 2   100.77     LegendNANA
11:00 20.8 3.5 32 8 5   100.73     LegendNANA
12:00 22.9 -0.4 21 31 3   100.68     LegendNANA
13:00 23.5 -1.7 19 10 8   100.65     LegendNANA
14:00 24.1 -2.5 17 21 10   100.62     LegendNANA
15:00 25.0 -3.1 15 16 9   100.57     LegendNANA
16:00 24.7 -3.5 15 12 10   100.56     LegendNANA
17:00 24.2 -4.1 15 22 4   100.57     LegendNANA
18:00 18.7 1.7 32 20 5   100.59     LegendNANA
19:00 13.1 2.8 49 13 5   100.63     LegendNANA
20:00 10.2 3.7 64 33 2   100.68     LegendNANA
21:00 8.2 3.2 71 30 3   100.72     LegendNANA
22:00 6.6 3.6 81 32 2   100.77     LegendNANA
23:00 6.2 3.7 84 31 5   100.83     LegendNANA

Notes on Data Quality.

Legend

  • E = Estimated
  • M = Missing
  • NA = Not Available
  • ‡ = Partner data that is not subject to review by the National Climate Archives
Date modified: